Voltar ao catálogo

COSMOS 1464

AtivoMilitarPO
NORAD 14084·PAYLOAD·🇷🇺 Russia

Lançado May 24, 1983 de Plesetsk Cosmodrome

Loading…

Próximas Passagens (próximas 24 horas)

TLE

AtualizadoSource: Space-Track

Época: Sep 14, 2026, 22:31 UTC

1 14084U 83048A   26257.93887588  .00000060  00000-0  46273-4 0  9990
2 14084  82.9465 138.9146 0030799 137.3366 249.4320 13.74699735172279

Acompanhe COSMOS 1464 em tempo real com AllMySat

Download on the App Store